WB5OMR-9 Weather Reports


Display with metric or nautical units.
time (UTC)temp
F
wind
direction
speed
MPH
gust
MPH
rain 1hr
in
rain 24hr
in
rain mn
in
humidity
%
barometer
mb
20260507020504 75 0.0 0.0 0.00 0.00 0.00 66 1011.2
20260507015502 76 0.0 0.0 0.00 0.00 0.00 67 1011.2
20260507014501 76 0.0 0.0 0.00 0.00 0.00 66 1011.2
20260507013459 77 0.0 0.0 0.00 0.00 0.00 65 1011.2
20260507012416 78 0.0 0.0 0.00 0.00 0.00 64 1010.8
20260507011332 79 0.0 0.0 0.00 0.00 0.00 64 1010.5
20260507010331 79 0.0 0.0 0.00 0.00 0.00 64 1010.2
20260507005330 80 0.0 0.0 0.00 0.00 0.00 63 1010.5
20260507004330 81 0.0 0.0 0.00 0.00 0.00 63 1010.2
20260507003329 81 0.0 0.0 0.00 0.00 0.00 62 1010.5
20260507002327 82 0.0 0.0 0.00 0.00 0.00 62 1010.2
20260507001326 83 0.0 0.0 0.00 0.00 0.00 61 1009.5
20260507000325 84 0.0 0.0 0.00 0.00 0.00 60 1009.5
20260506235324 85 0.0 0.0 0.00 0.00 0.00 60 1009.5
20260506234323 86 0.0 0.0 0.00 0.00 0.00 60 1009.5
20260506233321 87 0.0 0.0 0.00 0.00 0.00 60 1008.8
20260506232320 88 0.0 0.0 0.00 0.00 0.00 63 1008.8
20260506231319 88 0.0 0.0 0.00 0.00 0.00 62 1008.1
20260506230318 89 0.0 0.0 0.00 0.00 0.00 61 1008.1
20260506225235 90 0.0 0.0 0.00 0.00 0.00 61 1007.8
20260506224233 91 0.0 0.0 0.00 0.00 0.00 60 1007.8
20260506223232 91 0.0 0.0 0.00 0.00 0.00 59 1007.5
20260506222231 92 0.0 0.0 0.00 0.00 0.00 59 1007.5
20260506221230 92 0.0 0.0 0.00 0.00 0.00 58 1007.5
20260506220229 92 0.0 0.0 0.00 0.00 0.00 58 1007.5
20260506215145 91 0.0 0.0 0.00 0.00 0.00 59 1007.8
20260506214144 91 0.0 0.0 0.00 0.00 0.00 59 1007.8
20260506213143 92 0.0 0.0 0.00 0.00 0.00 58 1007.8
20260506212142 92 0.0 0.0 0.00 0.00 0.00 57 1008.1
20260506211141 93 0.0 0.0 0.00 0.00 0.00 57 1008.5
20260506210057 93 0.0 0.0 0.00 0.00 0.00 57 1008.5
20260506205056 92 0.0 0.0 0.00 0.00 0.00 58 1008.8
20260506204013 93 0.0 0.0 0.00 0.00 0.00 57 1008.8
20260506203012 94 0.0 0.0 0.00 0.00 0.00 56 1008.8
20260506202011 96 0.0 0.0 0.00 0.00 0.00 55 1009.1
20260506201011 94 0.0 0.0 0.00 0.00 0.00 58 1009.1
20260506200010 93 0.0 0.0 0.00 0.00 0.00 58 1009.1
20260506195009 92 0.0 0.0 0.00 0.00 0.00 59 1009.5
20260506194008 92 0.0 0.0 0.00 0.00 0.00 60 1009.5
20260506193007 92 0.0 0.0 0.00 0.00 0.00 62 1009.5
20260506192006 89 0.0 0.0 0.00 0.00 0.00 66 1009.8
20260506190923 89 0.0 0.0 0.00 0.00 0.00 66 1009.8
20260506185921 88 0.0 0.0 0.00 0.00 0.00 68 1009.8
20260506184920 88 0.0 0.0 0.00 0.00 0.00 69 1009.8
20260506183919 87 0.0 0.0 0.00 0.00 0.00 71 1009.8
20260506182917 86 0.0 0.0 0.00 0.00 0.00 72 1010.2
20260506181916 85 0.0 0.0 0.00 0.00 0.00 73 1010.5
20260506180833 85 0.0 0.0 0.00 0.00 0.00 75 1010.5
20260506175832 84 0.0 0.0 0.00 0.00 0.00 76 1010.5
20260506174831 84 0.0 0.0 0.00 0.00 0.00 76 1010.5
20260506173830 84 0.0 0.0 0.00 0.00 0.00 78 1010.5
20260506172829 83 0.0 0.0 0.00 0.00 0.00 82 1010.5
20260506171828 80 0.0 0.0 0.00 0.00 0.00 83 1010.5
20260506170826 80 0.0 0.0 0.00 0.00 0.00 84 1010.5
20260506165825 79 0.0 0.0 0.00 0.00 0.00 84 1010.5
20260506164824 79 0.0 0.0 0.00 0.00 0.00 85 1010.5
20260506163741 79 0.0 0.0 0.00 0.00 0.00 85 1010.5
20260506162658 79 0.0 0.0 0.00 0.00 0.00 85 1010.5
20260506161614 78 0.0 0.0 0.00 0.00 0.00 85 1010.2
20260506160613 79 0.0 0.0 0.00 0.00 0.00 84 1010.2
20260506155610 79 0.0 0.0 0.00 0.00 0.00 84 1009.8
20260506154609 79 0.0 0.0 0.00 0.00 0.00 84 1009.8
20260506153608 79 0.0 0.0 0.00 0.00 0.00 84 1009.8
20260506152607 79 0.0 0.0 0.00 0.00 0.00 84 1009.8
20260506151524 79 0.0 0.0 0.00 0.00 0.00 84 1009.8
20260506150441 78 0.0 0.0 0.00 0.00 0.00 85 1009.5
20260506145357 78 0.0 0.0 0.00 0.00 0.00 85 1009.1
20260506144356 78 0.0 0.0 0.00 0.00 0.00 86 1009.1
20260506143355 77 0.0 0.0 0.00 0.00 0.00 86 1008.8
20260506142353 77 0.0 0.0 0.00 0.00 0.00 87 1009.1
20260506141310 77 0.0 0.0 0.00 0.00 0.00 87 1008.8
20260506140309 76 0.0 0.0 0.00 0.00 0.00 87 1008.5
20260506135308 76 0.0 0.0 0.00 0.00 0.00 87 1008.1
20260506134307 76 0.0 0.0 0.00 0.00 0.00 87 1008.1
20260506133306 76 0.0 0.0 0.00 0.00 0.00 87 1008.1
20260506132307 76 0.0 0.0 0.00 0.00 0.00 87 1008.1
20260506131304 76 0.0 0.0 0.00 0.00 0.00 87 1007.8
20260506130302 76 0.0 0.0 0.00 0.00 0.00 88 1007.8
20260506125301 75 0.0 0.0 0.00 0.00 0.00 88 1007.8
20260506124259 75 0.0 0.0 0.00 0.00 0.00 87 1007.8
20260506123215 74 0.0 0.0 0.00 0.00 0.00 87 1007.8
20260506122214 74 0.0 0.0 0.00 0.00 0.00 87 1007.8
20260506121213 74 0.0 0.0 0.00 0.00 0.00 87 1007.8
20260506120211 74 0.0 0.0 0.00 0.00 0.00 87 1007.8
20260506115210 74 0.0 0.0 0.00 0.00 0.00 87 1007.8
20260506114209 74 0.0 0.0 0.00 0.00 0.00 87 1007.8
20260506113208 74 0.0 0.0 0.00 0.00 0.00 87 1007.8
20260506112206 74 0.0 0.0 0.00 0.00 0.00 87 1007.5
20260506111205 74 0.0 0.0 0.00 0.00 0.00 87 1007.5
20260506110204 75 0.0 0.0 0.00 0.00 0.00 86 1007.5
20260506105203 75 0.0 0.0 0.00 0.00 0.00 86 1007.5
20260506104201 75 0.0 0.0 0.00 0.00 0.00 86 1007.5
20260506103200 75 0.0 0.0 0.00 0.00 0.00 86 1007.5
20260506102116 76 0.0 0.0 0.00 0.00 0.00 86 1007.5
20260506101115 76 0.0 0.0 0.00 0.00 0.00 86 1007.5
20260506100032 76 0.0 0.0 0.00 0.00 0.00 86 1007.5
20260506094949 76 0.0 0.0 0.00 0.00 0.00 86 1007.8
20260506093906 76 0.0 0.0 0.00 0.00 0.00 86 1007.8
20260506092905 76 0.0 0.0 0.00 0.00 0.00 86 1007.8
20260506091904 76 0.0 0.0 0.00 0.00 0.00 86 1007.8
20260506090903 76 0.0 0.0 0.00 0.00 0.00 86 1007.5
20260506085819 76 0.0 0.0 0.00 0.00 0.00 86 1007.5
20260506084818 76 0.0 0.0 0.00 0.00 0.00 86 1007.5
20260506083817 76 0.0 0.0 0.00 0.00 0.00 86 1007.5
20260506082815 76 0.0 0.0 0.00 0.00 0.00 85 1007.5
20260506081814 76 0.0 0.0 0.00 0.00 0.00 85 1007.8
20260506080813 77 0.0 0.0 0.00 0.00 0.00 85 1007.8
20260506072645 77 0.0 0.0 0.00 0.00 0.00 85 1007.8
20260506071643 77 0.0 0.0 0.00 0.00 0.00 85 1007.8
20260506070642 77 0.0 0.0 0.00 0.00 0.00 84 1007.8
20260506062431 77 0.0 0.0 0.00 0.00 0.00 84 1008.1
20260506061429 78 0.0 0.0 0.00 0.00 0.00 84 1007.8
20260506060428 78 0.0 0.0 0.00 0.00 0.00 83 1007.8
20260506051214 78 0.0 0.0 0.00 0.00 0.00 81 1007.8
20260506050131 78 0.0 0.0 0.00 0.00 0.00 81 1007.8
20260506045048 79 0.0 0.0 0.00 0.00 0.00 81 1007.8
20260506044047 79 0.0 0.0 0.00 0.00 0.00 80 1007.8
20260506043045 79 0.0 0.0 0.00 0.00 0.00 79 1007.8
20260506042044 80 0.0 0.0 0.00 0.00 0.00 79 1007.8
20260506041043 80 0.0 0.0 0.00 0.00 0.00 79 1007.5
20260506040041 80 0.0 0.0 0.00 0.00 0.00 78 1007.5
20260506035040 80 0.0 0.0 0.00 0.00 0.00 78 1007.5
20260506034039 81 0.0 0.0 0.00 0.00 0.00 77 1007.1
20260506033038 81 0.0 0.0 0.00 0.00 0.00 77 1007.1
20260506031954 82 0.0 0.0 0.00 0.00 0.00 76 1007.1
20260506030953 82 0.0 0.0 0.00 0.00 0.00 75 1007.1
20260506025952 82 0.0 0.0 0.00 0.00 0.00 74 1006.8
20260506024951 83 0.0 0.0 0.00 0.00 0.00 73 1006.8
20260506023950 83 0.0 0.0 0.00 0.00 0.00 72 1006.4
20260506022906 84 0.0 0.0 0.00 0.00 0.00 71 1006.1
20260506021905 84 0.0 0.0 0.00 0.00 0.00 70 1006.1